TimeCST,TemperatureF,Dew PointF,Humidity,Sea Level PressureIn,VisibilityMPH,Wind Direction,Wind SpeedMPH,Gust SpeedMPH,PrecipitationIn,Events,Conditions,WindDirDegrees,DateUTC
12:15 AM,46.4,33.8,62,30.05,10.0,NW,10.4,-,N/A,,Clear,320,2012-12-04 06:15:00
12:35 AM,46.4,33.8,62,30.05,10.0,NW,9.2,-,N/A,,Clear,320,2012-12-04 06:35:00
12:55 AM,46.4,32.0,57,30.05,10.0,NW,10.4,-,N/A,,Clear,320,2012-12-04 06:55:00
1:15 AM,46.4,32.0,57,30.06,10.0,NW,9.2,-,N/A,,Clear,320,2012-12-04 07:15:00
1:35 AM,44.6,30.2,57,30.07,10.0,NW,10.4,-,N/A,,Clear,310,2012-12-04 07:35:00
1:55 AM,44.6,30.2,57,30.07,10.0,NW,9.2,-,N/A,,Clear,310,2012-12-04 07:55:00
2:15 AM,44.6,30.2,57,30.08,10.0,NW,9.2,-,N/A,,Clear,320,2012-12-04 08:15:00
2:55 AM,42.8,30.2,61,30.10,10.0,NW,8.1,-,N/A,,Clear,310,2012-12-04 08:55:00
3:15 AM,42.8,30.2,61,30.10,10.0,NW,6.9,-,N/A,,Clear,310,2012-12-04 09:15:00
3:35 AM,42.8,28.4,57,30.11,10.0,WNW,8.1,-,N/A,,Clear,300,2012-12-04 09:35:00
3:55 AM,39.2,28.4,65,30.12,10.0,WNW,5.8,-,N/A,,Clear,290,2012-12-04 09:55:00
4:15 AM,41.0,28.4,61,30.13,10.0,West,4.6,-,N/A,,Clear,280,2012-12-04 10:15:00
4:35 AM,41.0,28.4,61,30.13,10.0,West,4.6,-,N/A,,Clear,270,2012-12-04 10:35:00
4:55 AM,39.2,28.4,65,30.14,10.0,West,5.8,-,N/A,,Clear,270,2012-12-04 10:55:00
5:15 AM,39.2,28.4,65,30.15,10.0,West,4.6,-,N/A,,Clear,260,2012-12-04 11:15:00
5:55 AM,37.4,26.6,65,30.16,10.0,West,5.8,-,N/A,,Clear,270,2012-12-04 11:55:00
6:15 AM,37.4,26.6,65,30.17,10.0,West,4.6,-,N/A,,Clear,260,2012-12-04 12:15:00
6:35 AM,37.4,26.6,65,30.18,10.0,West,5.8,-,N/A,,Clear,260,2012-12-04 12:35:00
6:55 AM,37.4,26.6,65,30.19,10.0,WSW,4.6,-,N/A,,Clear,250,2012-12-04 12:55:00
7:15 AM,35.6,24.8,65,30.19,10.0,SW,3.5,-,N/A,,Clear,230,2012-12-04 13:15:00
7:35 AM,37.4,26.6,65,30.20,10.0,West,5.8,-,N/A,,Clear,260,2012-12-04 13:35:00
7:55 AM,35.6,26.6,70,30.20,10.0,West,8.1,-,N/A,,Clear,260,2012-12-04 13:55:00
8:15 AM,37.4,28.4,70,30.21,10.0,WSW,6.9,-,N/A,,Clear,250,2012-12-04 14:15:00
8:35 AM,41.0,30.2,65,30.21,10.0,WSW,6.9,-,N/A,,Clear,240,2012-12-04 14:35:00
8:55 AM,44.6,28.4,53,30.21,10.0,WSW,5.8,-,N/A,,Clear,250,2012-12-04 14:55:00
9:15 AM,46.4,30.2,53,30.22,10.0,West,6.9,-,N/A,,Clear,260,2012-12-04 15:15:00
9:35 AM,48.2,30.2,50,30.23,10.0,West,9.2,-,N/A,,Clear,270,2012-12-04 15:35:00
9:55 AM,51.8,28.4,41,30.24,10.0,West,6.9,-,N/A,,Clear,260,2012-12-04 15:55:00
10:15 AM,53.6,28.4,38,30.24,10.0,West,6.9,-,N/A,,Clear,270,2012-12-04 16:15:00
10:35 AM,57.2,28.4,33,30.24,10.0,West,6.9,-,N/A,,Clear,260,2012-12-04 16:35:00
10:55 AM,59.0,24.8,27,30.24,10.0,West,8.1,-,N/A,,Clear,260,2012-12-04 16:55:00
11:15 AM,60.8,21.2,22,30.23,10.0,West,10.4,-,N/A,,Clear,260,2012-12-04 17:15:00
11:35 AM,62.6,19.4,19,30.22,10.0,West,9.2,-,N/A,,Clear,270,2012-12-04 17:35:00
11:55 AM,62.6,15.8,16,30.21,10.0,West,10.4,-,N/A,,Clear,280,2012-12-04 17:55:00
12:15 PM,64.4,14.0,14,30.21,10.0,West,11.5,-,N/A,,Clear,270,2012-12-04 18:15:00
12:35 PM,64.4,12.2,13,30.21,10.0,WNW,12.7,19.6,N/A,,Clear,290,2012-12-04 18:35:00
12:55 PM,64.4,12.2,13,30.21,10.0,WNW,12.7,18.4,N/A,,Clear,290,2012-12-04 18:55:00
1:15 PM,64.4,10.4,12,30.21,10.0,West,12.7,-,N/A,,Clear,280,2012-12-04 19:15:00
1:35 PM,64.4,8.6,11,30.20,10.0,WNW,15.0,18.4,N/A,,Clear,300,2012-12-04 19:35:00
1:55 PM,64.4,6.8,10,30.20,10.0,West,12.7,-,N/A,,Clear,280,2012-12-04 19:55:00
2:15 PM,64.4,8.6,11,30.20,10.0,WNW,11.5,-,N/A,,Clear,300,2012-12-04 20:15:00
2:35 PM,64.4,6.8,10,30.20,10.0,WNW,15.0,-,N/A,,Clear,290,2012-12-04 20:35:00
2:55 PM,64.4,6.8,10,30.21,10.0,West,15.0,-,N/A,,Clear,280,2012-12-04 20:55:00
3:15 PM,62.6,8.6,12,30.21,10.0,WNW,12.7,-,N/A,,Clear,290,2012-12-04 21:15:00
3:35 PM,62.6,10.4,13,30.21,10.0,WNW,9.2,-,N/A,,Clear,290,2012-12-04 21:35:00
3:55 PM,62.6,12.2,14,30.22,10.0,NW,6.9,-,N/A,,Clear,320,2012-12-04 21:55:00
4:15 PM,59.0,15.8,19,30.23,10.0,NW,5.8,-,N/A,,Clear,310,2012-12-04 22:15:00
4:55 PM,53.6,17.6,24,30.24,10.0,NW,3.5,-,N/A,,Clear,320,2012-12-04 22:55:00
5:15 PM,55.4,17.6,23,30.24,10.0,NNW,4.6,-,N/A,,Clear,340,2012-12-04 23:15:00
5:35 PM,53.6,17.6,24,30.25,10.0,Calm,Calm,-,N/A,,Clear,0,2012-12-04 23:35:00
5:55 PM,53.6,19.4,26,30.26,10.0,Calm,Calm,-,N/A,,Clear,0,2012-12-04 23:55:00
6:15 PM,53.6,19.4,26,30.26,10.0,NNW,3.5,-,N/A,,Clear,340,2012-12-05 00:15:00
6:35 PM,51.8,21.2,30,30.26,10.0,NNW,3.5,-,N/A,,Clear,340,2012-12-05 00:35:00
6:55 PM,50.0,21.2,32,30.27,10.0,NNW,3.5,-,N/A,,Clear,340,2012-12-05 00:55:00
7:15 PM,50.0,21.2,32,30.27,10.0,NNW,4.6,-,N/A,,Clear,330,2012-12-05 01:15:00
7:35 PM,46.4,26.6,46,30.28,10.0,NNE,9.2,-,N/A,,Clear,20,2012-12-05 01:35:00
7:55 PM,46.4,26.6,46,30.30,10.0,NNE,6.9,-,N/A,,Clear,20,2012-12-05 01:55:00
8:15 PM,44.6,26.6,49,30.30,10.0,NNE,6.9,-,N/A,,Clear,30,2012-12-05 02:15:00
8:35 PM,42.8,26.6,53,30.30,10.0,NNE,6.9,-,N/A,,Clear,30,2012-12-05 02:35:00
8:55 PM,42.8,28.4,57,30.30,10.0,NNE,5.8,-,N/A,,Clear,30,2012-12-05 02:55:00
9:15 PM,42.8,26.6,53,30.30,10.0,NNE,3.5,-,N/A,,Clear,20,2012-12-05 03:15:00
9:35 PM,41.0,26.6,57,30.31,10.0,North,3.5,-,N/A,,Clear,10,2012-12-05 03:35:00
9:55 PM,41.0,28.4,61,30.31,10.0,NNE,3.5,-,N/A,,Clear,30,2012-12-05 03:55:00
10:15 PM,41.0,28.4,61,30.32,10.0,NNE,5.8,-,N/A,,Clear,30,2012-12-05 04:15:00
10:35 PM,39.2,28.4,65,30.31,10.0,NNE,6.9,-,N/A,,Clear,30,2012-12-05 04:35:00
10:55 PM,39.2,28.4,65,30.32,10.0,NE,8.1,-,N/A,,Clear,40,2012-12-05 04:55:00
11:15 PM,39.2,28.4,65,30.33,10.0,NE,5.8,-,N/A,,Clear,50,2012-12-05 05:15:00
11:35 PM,37.4,28.4,70,30.34,10.0,ENE,5.8,-,N/A,,Clear,60,2012-12-05 05:35:00
11:55 PM,37.4,28.4,70,30.35,10.0,NE,6.9,-,N/A,,Clear,40,2012-12-05 05:55:00